Preview of NWS' New Version of Forecast
This preview is not operational and should not be used for support decisions.

Regional Weather Roundup (RWR)

Issued by National Weather Service (NWS)

                            
000
ASUS45 KBOU 191010
RWRCO 

WEATHER ROUNDUP FOR COLORADO
NATIONAL WEATHER SERVICE DENVER/BOULDER CO
300 AM MST TUE FEB 19 2019

NOTE: "FAIR" INDICATES FEW OR NO CLOUDS BELOW 12000 FEET WITH NO
SIGNIFICANT WEATHER AND/OR OBSTRUCTIONS TO VISIBILITY.

COZ001>005-013-030-031-191100-
...NORTHWEST COLORADO...
  
CITY           SKY/WX    TMP DP  RH WIND       PRES   REMARKS
CRAIG          LGT SNOW  10   5  80 NW3       29.86S                  
HAYDEN         FLURRIES   7   4  87 SW3       29.84F                  
MEEKER         LGT SNOW  13   8  81 CALM      29.83R                  
RANGELY        CLOUDY    16   6  67 E12       29.91S WCI   2          
RABBIT EARS PA LGT SNOW   9   5  85 SW6       29.63F WCI  -1          
STEAMBOAT SPGS MOCLDY     7   6  94 CALM      29.80S                  
WALDEN         CLOUDY     7   1  78 NE5       29.73S WCI  -2          
$$

COZ006>008-011-191100-
...WEST CENTRAL VALLEYS...
  
CITY           SKY/WX    TMP DP  RH WIND       PRES   REMARKS
GRAND JUNCTION LGT SNOW  24  22  91 N9        29.84S FOG     WCI  14  
MONTROSE       LGT SNOW  23  22  96 NW5       29.82S FOG     WCI  17  
EAGLE          FLURRIES  17  15  92 CALM      29.78F                  
RIFLE          CLOUDY    20  12  71 W6        29.82S WCI  12          
DELTA          CLOUDY    27  25  92 CALM      29.82F                  
NUCLA          FLURRIES  23  21  93 N5        29.84F WCI  17          
$$

COZ017>023-064>068-191100-
...SOUTHWEST COLORADO...
  
CITY           SKY/WX    TMP DP  RH WIND       PRES   REMARKS
DURANGO        LGT SNOW  21  20  96 CALM      29.78F FOG              
CORTEZ         CLOUDY    18  14  84 E6        29.81F WCI  10          
PAGOSA SPRINGS LGT SNOW  19  19  99 CALM      29.76F                  
TELLURIDE      CLOUDY    14  10  85 CALM      29.72S                  
WOLF CREEK PAS CLOUDY     3   1  92 SW15G22   29.68F WCI -15          
$$

COZ009-010-012-014-032>034-037-058>063-191100-
...CENTRAL COLORADO...
  
CITY           SKY/WX    TMP DP  RH WIND       PRES   REMARKS
ASPEN          CLOUDY    15  10  80 S5        29.70F WCI   8          
BUENA VISTA    LGT SNOW   5   1  85 SE6       29.79F WCI  -6          
COPPER MTN     CLOUDY     7   0  72 SE5       29.60F WCI  -2          
BERTHOUD PASS  FAIR      -2 -13  60 NW7       29.59F WCI -16          
DAKOTA HILL    FAIR       5   0  78 S7        29.62F WCI  -7          
COTTONWOOD PAS LGT SNOW   9   3  78 CALM      29.69F                  
GUNNISON       LGT SNOW  14  12  92 CALM      29.74F FOG              
GRANBY         LGT SNOW   9   5  84 CALM      29.72F                  
KREMMLING      CLOUDY    10   9  92 CALM      29.76F                  
LEADVILLE      CLOUDY     2  -2  83 E6        29.67S WCI  -9          
MONARCH PASS   CLOUDY     5   0  78 MISG      29.72F                  
SALIDA         CLOUDY     7   4  84 SE6       29.90F WCI  -3          
SUNLIGHT       LGT SNOW   5   3  92 MISG      29.69S                  
WILKERSON PASS FLURRIES   5   1  85 SW7       29.68R WCI  -7          
$$

COZ069>075-191100-
...SAN LUIS VALLEY/SANGRE DE CRISTO MOUNTAINS...
  
CITY           SKY/WX    TMP DP  RH WIND       PRES   REMARKS
ALAMOSA        LGT SNOW  18  16  92 S12       29.77F FOG     WCI   5  
DEL NORTE      CLOUDY    15  10  83 NE6       29.73F WCI   6          
LA VETA PASS   NOT AVBL                                               
SAGUACHE       LGT SNOW  19  16  86 CALM      29.76F                  
$$

COZ035-036-038>040-191100-
...NORTHERN COLORADO FRONT RANGE...
  
CITY           SKY/WX    TMP DP  RH WIND       PRES   REMARKS
DENVER INTL AP FLURRIES  15   8  73 S7        29.91F WCI   5          
AURORA         CLOUDY    13   7  76 S16       29.90F WCI  -3          
FRONT RANGE AP NOT AVBL                                               
ERIE MUNI ARPT MOCLDY    14   9  78 N5        29.98F WCI   7          
BOULDER MUN AP CLOUDY    14  10  85 N6        29.91F WCI   5          
CENTENNIAL     FLURRIES  11   6  81 S12       29.88F WCI  -3          
BROOMFIELD     CLOUDY    14  12  92 N8        29.88F WCI   3          
FORT COLLINS   CLOUDY    13   6  74 NE7       29.95F WCI   3          
LONGMONT       CLOUDY    16   8  72 NE5       29.95F HAZE    WCI   9  
$$

COZ041-046-047-076>085-087-088-191100-
...PIKES PEAK/PALMER DIVIDE AND SOUTHERN FOOTHILLS...
  
CITY           SKY/WX    TMP DP  RH WIND       PRES   REMARKS
COLO. SPRINGS  LGT SNOW   8   5  87 SE7       29.91F FOG     WCI  -3  
A. F. ACADEMY  CLOUDY     7   1  78 S8        29.87F HAZE    WCI  -6  
SCHRIEVER AFB  NOT AVBL                                               
CHEYENNE MTN   LGT SNOW   4   1  90 SE5       29.80F WCI  -6          
ELLICOTT       NOT AVBL                                               
FALCON         LGT SNOW   6   2  85 S6        29.87F WCI  -5          
FORT CARSON    FLURRIES   9   4  83 SW3       29.92F                  
LIMON          LGT SNOW  11   8  88 S25G33    29.96F FOG     WCI -10  
MONUMENT HILL  FLURRIES   9   3  78 S8        29.83F WCI  -4          
CANON CITY     CLOUDY    10   7  85 CALM      29.95F                  
WALSENBURG     NOT AVBL                                               
TRINIDAD       FAIR       7   4  87 N6        29.91F WCI  -3          
$$

COZ042>045-048>051-090-091-191100-
...NORTHEAST COLORADO...
  
CITY           SKY/WX    TMP DP  RH WIND       PRES   REMARKS
GREELEY ARPT   CLOUDY    15   8  73 CALM      29.97F                  
AKRON          LGT SNOW  12  10  92 SE15      30.02F FOG     WCI  -4  
BURLINGTON     CLOUDY    14  11  87 S16       30.11F FOG     WCI  -2  
WRAY           LGT SNOW  16  12  86 SE13      30.16F WCI   2          
YUMA           FLURRIES  12   9  85 SE13G20   30.09F WCI  -3          
STERLING       FLURRIES  18  12  79 S14       30.07F WCI   4          
HOLYOKE        LGT SNOW  14  10  85 SE13      30.16F WCI   0          
FORT MORGAN    FLURRIES  14   9  80 SE13G21   30.02F WCI   0          
$$

COZ086-089-092>099-191100-
...SOUTHEAST COLORADO...
  
CITY           SKY/WX    TMP DP  RH WIND       PRES   REMARKS
PUEBLO         LGT SNOW  15  11  83 MISG      30.00F FOG              
LA JUNTA       FAIR      12   8  84 E17       30.05F WCI  -5          
LAMAR          CLOUDY    17  11  77 SE12      30.12F WCI   4          
SPRINGFIELD      N/A     11  10  96 SE12      30.07F WCI  -3          
$$